IRIDIUM 166 (43570 NORAD) Tracking and Keplerian Element Data

This shows tracking and keplerian element data for the satellite.

Feedback or suggestion? Click here.




ElementValue
Catalog43570
NameIRIDIUM 166
Epoch Orbit421
Epoch Day235.36725153
Epoch Year2018
RAAN169.7686
Inclination86.4025
Eccentricity0.0002207
Argument of Perigee82.865
Mean Anonmoly277.2797
Mean Motion14.34219104
Decay Rate3.2E-07
L11 43570U 18061B 18235.36725153 .00000032 00000-0 43365-5 0 9997
L22 43570 86.4025 169.7686 0002207 82.8650 277.2797 14.34219104 4216

Live tracking and technical data element details for IRIDIUM 166 (NORAD 43570). IRIDIUM 166 can be tracked NOW for your location showing map with azimuth and elevation plus other details from your city location.

Track the satellite on the map from your city or location and see movement details for azimuth, elevation, latitude, longitude, range, height, and movement on the map or in text.







IsCatalogInMostPopularTable: catalog: 43570, numindb: 43
Update: records affected: 1



GetName: 43570 IRIDIUM 166

Hit Count: updated at: Thu, 15 Nov 2018 03:49:29 GMT